GPS BIIF-4 (PRN 27)

Last updated on Wed Sep 17 2025 00:03:17 GMT+0000 (Coordinated Universal Time)

1 39166U 13023A 25258.96604745 .00000015 00000+0 00000+0 0 9991 2 39166 54.7243 280.1344 0133460 48.1429 313.0358 2.00565451 90380
UTC large
Height (km)
Speed (km/s)
/
Latitude / Longitude
Inclination (degrees)
Orbital Period (minutes)
Azimuth
Elevation
Range (km)
Doppler Factor

Next 0 passes for location: London (51.5072 / 0.1276)

Sorry there are no passes over London.